CW2751 Weather Reports


Display with metric or nautical units.
time (UTC)temp
F
wind
direction
speed
MPH
gust
MPH
rain 1hr
in
rain 24hr
in
rain mn
in
humidity
%
barometer
mb
20260903233037 97 54 3.0 0.0 0.00 0.00 0.00 20 999.1
20260903231541 97 49 2.0 0.0 0.00 0.00 0.00 20 998.7
20260903230046 97 90 4.0 0.0 0.00 0.00 0.00 19 998.5
20260903224540 98 61 4.0 0.0 0.00 0.00 0.00 20 998.5
20260903223045 99 130 1.0 0.0 0.00 0.00 0.00 23 998.5
20260903221518 97 68 3.0 0.0 0.00 0.00 0.00 20 998.6
20260903220100 97 73 2.0 0.0 0.00 0.00 0.00 21 998.8
20260903214511 96 257 3.0 0.0 0.00 0.00 0.00 21 998.8
20260903213014 96 79 2.0 0.0 0.00 0.00 0.00 20 998.8
20260903211528 96 358 3.0 0.0 0.00 0.00 0.00 21 998.8
20260903210051 95 351 6.0 0.0 0.00 0.00 0.00 23 998.9
20260903204554 95 38 6.0 0.0 0.00 0.00 0.00 25 998.8
20260903203100 95 34 5.0 0.0 0.00 0.00 0.00 23 999.0
20260903203002 95 79 4.0 0.0 0.00 0.00 0.00 25 999.0
20260903201534 94 28 5.0 0.0 0.00 0.00 0.00 26 999.2
20260903200020 94 288 5.0 0.0 0.00 0.00 0.00 25 998.8
20260903194550 94 39 7.0 0.0 0.00 0.00 0.00 27 999.0
20260903193023 94 356 5.0 0.0 0.00 0.00 0.00 27 999.0
20260903191545 93 327 5.0 0.0 0.00 0.00 0.00 27 999.1
20260903190013 92 10 5.0 0.0 0.00 0.00 0.00 27 999.7
20260903184528 92 315 6.0 0.0 0.00 0.00 0.00 28 999.7
20260903183029 91 340 6.0 0.0 0.00 0.00 0.00 28 1000.1
20260903181557 90 6 6.0 0.0 0.00 0.00 0.00 32 1000.2
20260903180108 88 327 6.0 0.0 0.00 0.00 0.00 33 1000.1
20260903174511 87 312 7.0 0.0 0.00 0.00 0.00 35 1000.5
20260903173017 86 260 8.0 0.0 0.00 0.00 0.00 34 1000.6
20260903171509 85 291 9.0 0.0 0.00 0.00 0.00 35 1000.8
20260903170035 84 274 8.0 0.0 0.00 0.00 0.00 38 1000.3
20260903164533 83 285 8.0 0.0 0.00 0.00 0.00 40 1000.3
20260903163044 81 294 7.0 0.0 0.00 0.00 0.00 43 1000.3
20260903161539 80 267 9.0 0.0 0.00 0.00 0.00 45 1000.5
20260903160011 78 325 8.0 0.0 0.00 0.00 0.00 47 1000.7
20260903154549 77 254 10.0 0.0 0.00 0.00 0.00 48 1001.0
20260903153015 75 281 11.0 0.0 0.00 0.00 0.00 50 1001.1
20260903151541 74 277 10.0 0.0 0.00 0.00 0.00 52 1001.1
20260903150045 72 310 9.0 0.0 0.00 0.00 0.00 55 1001.1
20260903144548 71 302 8.0 0.0 0.00 0.00 0.00 57 1001.2
20260903143011 69 296 11.0 0.0 0.00 0.00 0.00 60 1001.3
20260903141508 67 296 10.0 0.0 0.00 0.00 0.00 64 1001.3
20260903140016 66 255 10.0 0.0 0.00 0.00 0.00 66 1000.8
20260903134525 64 278 9.0 0.0 0.00 0.00 0.00 69 1000.9
20260903133053 63 275 8.0 0.0 0.00 0.00 0.00 70 1000.8
20260903131522 62 254 7.0 0.0 0.00 0.00 0.00 73 1000.6
20260903130026 62 214 6.0 0.0 0.00 0.00 0.00 73 1000.4
20260903124538 63 251 6.0 0.0 0.00 0.00 0.00 74 1000.3
20260903123040 64 278 6.0 0.0 0.00 0.00 0.00 73 1000.1
20260903121512 65 192 6.0 0.0 0.00 0.00 0.00 74 999.4
20260903120035 66 271 7.0 0.0 0.00 0.00 0.00 74 998.7
20260903114600 66 213 7.0 0.0 0.00 0.00 0.00 73 998.7
20260903113050 67 209 6.0 0.0 0.00 0.00 0.00 71 998.4
20260903111556 68 217 7.0 0.0 0.00 0.00 0.00 69 998.1
20260903110007 68 181 6.0 0.0 0.00 0.00 0.00 69 998.0
20260903104521 68 189 5.0 0.0 0.00 0.00 0.00 68 997.9
20260903103021 69 255 6.0 0.0 0.00 0.00 0.00 67 997.9
20260903101526 69 165 7.0 0.0 0.00 0.00 0.00 65 998.0
20260903100032 69 196 7.0 0.0 0.00 0.00 0.00 65 998.0
20260903094538 70 207 7.0 0.0 0.00 0.00 0.00 64 998.0
20260903093039 70 205 5.0 0.0 0.00 0.00 0.00 63 997.7
20260903091545 71 246 6.0 0.0 0.00 0.00 0.00 61 997.5
20260903090042 71 186 6.0 0.0 0.00 0.00 0.00 61 997.3
20260903084528 71 193 4.0 0.0 0.00 0.00 0.00 61 997.2
20260903083025 72 128 4.0 0.0 0.00 0.00 0.00 59 997.0
20260903081536 73 175 3.0 0.0 0.00 0.00 0.00 57 997.0
20260903080037 74 186 4.0 0.0 0.00 0.00 0.00 56 997.2
20260903074559 74 217 4.0 0.0 0.00 0.00 0.00 55 997.0
20260903073056 74 168 4.0 0.0 0.00 0.00 0.00 55 997.1
20260903071600 74 199 5.0 0.0 0.00 0.00 0.00 55 997.4
20260903070112 74 189 5.0 0.0 0.00 0.00 0.00 54 998.0
20260903064507 75 182 5.0 0.0 0.00 0.00 0.00 51 998.2
20260903063016 75 205 7.0 0.0 0.00 0.00 0.00 49 998.1
20260903061555 76 212 7.0 0.0 0.00 0.00 0.00 47 998.2
20260903060034 76 189 7.0 0.0 0.00 0.00 0.00 45 998.4
20260903054523 77 203 7.0 0.0 0.00 0.00 0.00 43 998.5
20260903053026 77 205 7.0 0.0 0.00 0.00 0.00 42 998.6
20260903051532 78 236 6.0 0.0 0.00 0.00 0.00 38 998.5
20260903050035 78 176 5.0 0.0 0.00 0.00 0.00 33 998.8
20260903044545 77 202 5.0 0.0 0.00 0.00 0.00 32 999.2
20260903043002 77 185 5.0 0.0 0.00 0.00 0.00 35 999.3
20260903041518 77 182 5.0 0.0 0.00 0.00 0.00 35 999.2
20260903040035 77 198 5.0 0.0 0.00 0.00 0.00 33 999.7
20260903034552 77 196 4.0 0.0 0.00 0.00 0.00 32 999.8
20260903033056 78 198 5.0 0.0 0.00 0.00 0.00 32 999.8
20260903031557 78 186 6.0 0.0 0.00 0.00 0.00 32 999.8
20260903030059 79 212 6.0 0.0 0.00 0.00 0.00 31 1000.1
20260903024508 81 185 6.0 0.0 0.00 0.00 0.00 30 999.8
20260903023014 83 203 6.0 0.0 0.00 0.00 0.00 28 999.6
20260903021544 84 186 6.0 0.0 0.00 0.00 0.00 26 999.3
20260903020031 84 223 7.0 0.0 0.00 0.00 0.00 25 999.6
20260903014534 84 189 7.0 0.0 0.00 0.00 0.00 26 999.4
20260903013028 85 209 6.0 0.0 0.00 0.00 0.00 27 999.4
20260903011538 86 193 6.0 0.0 0.00 0.00 0.00 27 999.3
20260903010032 87 190 5.0 0.0 0.00 0.00 0.00 28 999.7
20260903004540 88 193 4.0 0.0 0.00 0.00 0.00 28 999.5
20260903003104 89 217 6.0 0.0 0.00 0.00 0.00 27 999.4
20260903001600 90 220 6.0 0.0 0.00 0.00 0.00 26 999.1
20260903000004 92 188 6.0 0.0 0.00 0.00 0.00 25 998.9
20260902234535 93 217 8.0 0.0 0.00 0.00 0.00 20 998.7